Meteo Giornale » Osservazioni meteo Svezia » Stockholm-Arlanda

ore: 00:50 - Osservazioni Meteo Stockholm-Arlanda
Lat. 59° 39' N Lon. 17° 57' E Alt. 38 metri s.l.m.

coperto Europe/Stockholm

11 °C

Coperto

Temp. 24 Ore

7 °C

17 °C

Nord-Est

13 Km/h

Dew point 11 °C

Umidità 100 %

Visibilità  10 Km

Il sole sorge alle ore 06:32

Il sole tramonta alle ore 18:49

Data e Ora Cielo e Fenomeni T °C DP °C Um. % Pres. hPa Vis. km Vento km/h
Oggi h: 00:50 coperto Coperto 11 11 100 1025 10 NE 13
Oggi h: 00:20 coperto Coperto 11 11 100 1025 10 NE 13
Ieri h: 23:50 coperto Coperto 11 11 100 1025 10 NE 13
Ieri h: 23:20 coperto Coperto 11 11 100 1025 10 NE 14.8
Ieri h: 22:50 molto_nuvoloso Molto Nuvoloso 11 10 93 1025 10 N/NE 14.8
Ieri h: 22:20 molto_nuvoloso Molto Nuvoloso 11 11 100 1025 10 NE 14.8
Ieri h: 21:50 sereno Sereno 11 11 100 1025 10 NE 13
Ieri h: 21:20 sereno Sereno 11 11 100 1025 10 NE 14.8
Ieri h: 20:50 sereno Sereno 10 9 93 1025 10 NE 13
Ieri h: 20:20 sereno Sereno 11 10 93 1025 10 E/NE 11.1
Ieri h: 19:50 sereno Sereno 12 11 93 1025 10 E/NE 9.3
Ieri h: 19:20 sereno Sereno 13 10 81 1025 10 E/NE 13
Ieri h: 18:50 sereno Sereno 13 11 87 1025 10 E 11.1
Ieri h: 18:20 sereno Sereno 14 11 82 1024 10 E 13
Ieri h: 17:50 poco_nuvoloso Poco Nuvoloso 15 11 76 1024 10 E 14.8
Ieri h: 17:20 poco_nuvoloso Poco Nuvoloso 15 11 76 1024 10 E/SE 11.1
Ieri h: 16:50 molto_nuvoloso Molto Nuvoloso 15 12 82 1024 10 E 9.3
Ieri h: 16:20 nuvoloso Nuvoloso 15 12 82 1024 10 E 13
Ieri h: 15:50 coperto_pioggia Pioviggine Leggera 15 11 76 1024 10 E 13
Ieri h: 15:20 nuvoloso Nuvoloso 17 10 63 1024 10 E 14.8
Ieri h: 14:50 nuvoloso Nuvoloso 16 10 67 1023 10 E/SE 9.3
Ieri h: 14:20 nuvoloso Nuvoloso 16 10 67 1023 10 SE 11.1
Ieri h: 13:50 nuvoloso Nuvoloso 16 10 67 1023 10 E 16.7
Ieri h: 13:20 nuvoloso Nuvoloso 15 10 72 1023 10 E 16.7
Ieri h: 12:50 molto_nuvoloso Molto Nuvoloso 15 11 76 1023 10 E/SE 14.8
Ieri h: 12:20 molto_nuvoloso Molto Nuvoloso 16 10 67 1023 10 E/SE 14.8
Ieri h: 11:50 molto_nuvoloso Molto Nuvoloso 15 11 76 1022 10 E/SE 13
Ieri h: 11:20 molto_nuvoloso Molto Nuvoloso 14 12 87 1022 10 E 11.1
Ieri h: 10:50 molto_nuvoloso Molto Nuvoloso 14 12 87 1022 10 E 9.3
Ieri h: 10:20 nuvoloso Nuvoloso 13 12 93 1022 10 E 9.3
Ieri h: 09:50 molto_nuvoloso Molto Nuvoloso 13 12 93 1022 10 E 13
Ieri h: 09:20 molto_nuvoloso Molto Nuvoloso 11 11 100 1021 10 E/NE 14.8
Ieri h: 08:50 molto_nuvoloso Molto Nuvoloso 11 10 93 1021 10 E/NE 14.8
Ieri h: 08:20 coperto_pioggia Pioviggine Leggera 10 10 100 1021 10 E/NE 16.7
Ieri h: 07:50 molto_nuvoloso Molto Nuvoloso 10 9 93 1021 10 NE 18.5
Ieri h: 07:20 coperto Coperto 9 9 100 1021 10 E/NE 18.5
Ieri h: 06:50 coperto_pioggia Pioggia Debole 9 9 100 1020 10 E/NE 20.3
Ieri h: 06:20 coperto_pioggia Pioggia Debole 9 9 100 1020 8 NE 18.5
Ieri h: 05:50 coperto_pioggia Pioggia Debole 9 8 93 1020 10 NE 20.3
Ieri h: 05:20 coperto_pioggia Pioggia 8 8 100 1020 7 NE 22.2
Ieri h: 04:50 coperto_pioggia Pioggia Debole 8 8 100 1020 9 N/NE 20.3
Ieri h: 04:20 coperto_pioggia Pioggia Debole 8 7 93 1020 10 N/NE 24
Ieri h: 03:50 coperto_pioggia Pioggia Debole 8 7 93 1020 10 N/NE 22.2
Ieri h: 03:20 coperto_pioggia Pioggia 7 7 100 1020 6 N/NE 22.2
Ieri h: 02:50 coperto_pioggia Pioggia 7 7 100 1020 7 NE 18.5
Ieri h: 02:20 coperto_pioggia Pioggia 8 7 93 1020 10 N/NE 14.8
Ieri h: 01:50 coperto_pioggia Pioggia 8 7 93 1020 10 NE 14.8